Date String (YYYY-MM-DD hh:mm:ss) UTC,Instrument flags,absolute air pressure of the measurement (hPa),sample flow rate (lpm),inlet stack bypass flow (lpm),air temperature of the measurement (°C),ambient temperature measured by the external sensor (°C),aerosol sample conditioner tube jacket temperature (°C),OPC LED temperature (°C),internal box temperature (°C),relative humidity of the measurement (%),span deviation,mass concentration of particles derived from Lorenz-Mie calculation of OPC scattering (μg/m³),mass concentration of particles derived from Lorenz-Mie calculation of OPC scattering (μg/m³),mass concentration of particles derived from Lorenz-Mie calculation of OPC scattering (μg/m³)
DateTimeUTC,F1_M11,P_M11,Q1_M11,Q2_M11,T1_M11,T2_M11,T3_M11,T4_M11,T5_M11,U1_M11,ZSPAN_M11,X0_M11,X2_M11,X1_M11
2024-01-26 15:00:00,SystemResetWarning,0832.7,5.00,000.00,020.8,019.8,000.0,029.1,022.2,19.0,-000.1,0009.14,0005.35,0005.18
2024-01-26 15:01:00,SystemResetWarning,0832.7,5.00,000.00,020.8,019.8,000.0,029.1,022.1,18.9,-000.3,0008.96,0005.34,0005.17
2024-01-26 15:02:00,SystemResetWarning,0832.7,5.00,000.00,020.8,019.8,000.0,029.1,022.1,18.9,-000.3,0008.72,0005.32,0005.15
2024-01-26 15:03:00,SystemResetWarning,0832.7,5.00,000.00,020.8,019.8,000.0,029.1,022.2,18.9,-000.3,0008.17,0005.29,0005.13
2024-01-26 15:04:00,SystemResetWarning,0832.7,5.00,000.00,020.8,019.8,000.0,029.1,022.2,18.8,-000.2,0008.11,0005.27,0005.11
2024-01-26 15:05:00,SystemResetWarning,0832.9,5.00,000.00,020.8,019.8,000.0,029.1,022.2,18.7,0000.6,0008.04,0005.26,0005.09
2024-01-26 15:06:00,SystemResetWarning,0832.7,5.00,000.00,020.8,019.8,000.0,029.1,022.1,18.7,0000.7,0007.99,0005.25,0005.06
2024-01-26 15:07:00,SystemResetWarning,0832.8,5.00,000.00,020.8,019.8,000.0,029.1,022.2,18.7,0001.0,0007.97,0005.24,0005.06
2024-01-26 15:08:00,SystemResetWarning,0832.8,5.01,000.00,020.8,019.8,000.0,029.1,022.2,18.7,0000.9,0007.61,0005.27,0005.05
2024-01-26 15:09:00,SystemResetWarning,0832.8,5.01,000.00,020.8,019.8,000.0,029.1,022.2,18.7,0001.0,0007.57,0005.26,0005.04
2024-01-26 15:10:00,SystemResetWarning,0832.8,5.00,000.00,020.8,019.8,000.0,029.1,022.2,18.7,0001.3,0007.51,0005.24,0005.02
2024-01-26 15:11:00,SystemResetWarning,0832.8,5.00,000.00,020.8,019.8,000.0,029.1,022.2,18.7,0001.2,0007.56,0005.25,0005.03
2024-01-26 15:12:00,SystemResetWarning,0832.7,5.00,000.00,020.8,019.8,000.0,029.1,022.2,18.7,0001.3,0007.56,0005.24,0005.01
2024-01-26 15:13:00,SystemResetWarning,0832.8,5.00,000.00,020.8,019.8,000.0,029.1,022.2,18.8,0001.3,0007.60,0005.24,0004.99
2024-01-26 15:14:00,SystemResetWarning,0832.8,5.00,000.00,020.8,019.8,000.0,029.1,022.1,18.8,0001.0,0007.63,0005.23,0004.98
2024-01-26 15:15:00,SystemResetWarning,0832.8,4.99,000.00,020.8,019.8,000.0,029.1,022.1,18.8,0001.1,0007.56,0005.18,0004.95
2024-01-26 15:16:00,SystemResetWarning,0832.8,5.00,000.00,020.8,019.8,000.0,029.1,022.1,18.7,0001.1,0007.54,0005.15,0004.92
2024-01-26 15:17:00,SystemResetWarning,0832.8,5.00,000.00,020.8,019.8,000.0,029.1,022.1,18.7,0001.5,0007.52,0005.13,0004.91
2024-01-26 15:18:00,SystemResetWarning,0832.8,5.00,000.00,020.8,019.8,000.0,029.1,022.1,18.7,0001.4,0007.48,0005.09,0004.87
2024-01-26 15:19:00,SystemResetWarning,0832.8,5.00,000.00,020.8,019.8,000.0,029.1,022.1,18.7,0001.3,0007.35,0005.01,0004.83
2024-01-26 15:20:00,SystemResetWarning,0832.8,5.00,000.00,020.8,019.7,000.0,029.1,022.1,18.8,0001.2,0007.36,0004.99,0004.80
2024-01-26 15:21:00,SystemResetWarning,0832.8,5.01,000.00,020.8,019.7,000.0,029.1,022.1,18.8,0001.3,0007.47,0004.99,0004.77
2024-01-26 15:22:00,SystemResetWarning,0832.8,5.00,000.00,020.8,019.7,000.0,029.1,022.1,18.9,0001.5,0007.51,0004.99,0004.75
2024-01-26 15:23:00,SystemResetWarning,0832.8,5.01,000.00,020.8,019.7,000.0,029.1,022.1,19.0,0001.1,0007.53,0004.97,0004.73
2024-01-26 15:24:00,SystemResetWarning,0832.9,5.00,000.00,020.8,019.7,000.0,029.1,022.1,19.1,0000.0,0007.49,0004.95,0004.72
2024-01-26 15:25:00,SystemResetWarning,0832.8,5.00,000.00,020.7,019.7,000.0,029.1,022.1,19.2,0000.0,0007.99,0004.92,0004.69
2024-01-26 15:26:00,SystemResetWarning,0832.9,5.00,000.00,020.7,019.7,000.0,029.1,022.1,19.3,0000.0,0008.34,0004.89,0004.68
2024-01-26 15:27:00,SystemResetWarning,0832.9,5.00,000.00,020.7,019.7,000.0,029.1,022.1,19.3,0000.0,0008.30,0004.86,0004.66
2024-01-26 15:28:00,SystemResetWarning,0832.8,5.00,000.00,020.7,019.7,000.0,029.1,022.1,19.2,0000.0,0008.29,0004.83,0004.63
2024-01-26 15:29:00,SystemResetWarning,0832.8,5.00,000.00,020.7,019.7,000.0,029.1,022.1,19.2,0000.0,0008.25,0004.81,0004.60
2024-01-26 15:30:00,SystemResetWarning,0833.2,5.00,000.00,020.7,019.6,000.0,029.0,022.1,19.0,0000.0,0008.23,0004.80,0004.59
2024-01-26 15:31:00,SystemResetWarning,0833.3,5.00,000.00,020.7,019.6,000.0,029.0,022.1,18.9,0000.0,0008.16,0004.78,0004.59
2024-01-26 15:32:00,SystemResetWarning,0833.4,5.01,000.00,020.7,019.6,000.0,029.0,022.1,18.7,0000.0,0008.11,0004.74,0004.58
2024-01-26 15:33:00,SystemResetWarning,0833.5,5.01,000.00,020.7,019.6,000.0,029.0,022.0,18.8,0000.0,0008.03,0004.69,0004.55
2024-01-26 15:34:00,SystemResetWarning,0833.2,5.00,000.00,020.7,019.6,000.0,029.0,022.0,18.7,0000.0,0008.02,0004.70,0004.55
2024-01-26 15:35:00,SystemResetWarning,0833.1,4.99,000.00,020.7,019.6,000.0,029.0,022.0,18.5,0000.0,0007.97,0004.69,0004.54
2024-01-26 15:36:00,SystemResetWarning,0833.3,5.00,000.00,020.7,019.6,000.0,029.0,022.0,18.3,0000.1,0007.51,0004.68,0004.53
2024-01-26 15:37:00,SystemResetWarning,0833.2,5.00,000.00,020.7,019.6,000.0,029.0,022.1,17.9,0000.0,0008.06,0004.69,0004.51
2024-01-26 15:38:00,SystemResetWarning,0833.1,5.01,000.00,020.7,019.6,000.0,029.0,022.0,17.6,0000.0,0008.06,0004.68,0004.49
2024-01-26 15:39:00,SystemResetWarning,0832.9,5.01,000.00,020.7,019.6,000.0,029.0,022.1,17.7,-000.2,0008.17,0004.65,0004.46
2024-01-26 15:40:00,SystemResetWarning,0833.0,5.00,000.00,020.7,019.6,000.0,029.0,022.1,17.9,-000.3,0008.52,0004.64,0004.44
2024-01-26 15:41:00,SystemResetWarning,0833.0,5.00,000.00,020.7,019.7,000.0,029.0,022.1,17.6,-000.0,0008.49,0004.60,0004.41
2024-01-26 15:42:00,SystemResetWarning,0833.0,5.00,000.00,020.7,019.7,000.0,029.0,022.1,17.5,0000.0,0008.53,0004.58,0004.37
2024-01-26 15:43:00,SystemResetWarning,0832.9,5.00,000.00,020.7,019.7,000.0,029.0,022.1,17.5,0000.0,0008.49,0004.55,0004.33
2024-01-26 15:44:00,SystemResetWarning,0833.2,5.00,000.00,020.7,019.7,000.0,029.0,022.1,17.7,0000.0,0008.50,0004.53,0004.30
2024-01-26 15:45:00,SystemResetWarning,0833.2,5.00,000.00,020.7,019.7,000.0,029.0,022.1,17.9,-000.2,0008.45,0004.47,0004.25
2024-01-26 15:46:00,SystemResetWarning,0833.2,5.00,000.00,020.7,019.7,000.0,029.0,022.0,18.1,-000.3,0008.55,0004.44,0004.22
2024-01-26 15:47:00,SystemResetWarning,0833.1,5.00,000.00,020.7,019.7,000.0,029.0,022.0,18.3,0000.0,0008.50,0004.40,0004.18
2024-01-26 15:48:00,SystemResetWarning,0833.0,5.00,000.00,020.7,019.6,000.0,029.0,022.0,18.0,0000.0,0007.36,0004.33,0004.15
2024-01-26 15:49:00,SystemResetWarning,0833.0,5.01,000.00,020.7,019.6,000.0,029.0,022.0,17.9,0000.0,0007.34,0004.30,0004.11
2024-01-26 15:50:00,SystemResetWarning,0833.0,5.01,000.00,020.7,019.6,000.0,029.0,022.0,18.6,0000.0,0006.99,0004.25,0004.07
2024-01-26 15:51:00,SystemResetWarning,0833.0,5.00,000.00,020.7,019.6,000.0,029.0,022.0,19.0,0000.0,0006.21,0004.20,0004.03
2024-01-26 15:52:00,SystemResetWarning,0833.2,5.00,000.00,020.7,019.6,000.0,029.0,022.0,19.0,0000.0,0006.09,0004.15,0003.99
2024-01-26 15:53:00,SystemResetWarning,0833.3,5.00,000.00,020.7,019.6,000.0,029.0,022.0,18.7,0000.0,0005.88,0004.08,0003.92
2024-01-26 15:54:00,SystemResetWarning,0833.1,5.00,000.00,020.7,019.6,000.0,029.0,022.0,18.6,0000.0,0005.59,0003.99,0003.85
2024-01-26 15:55:00,SystemResetWarning,0833.1,5.00,000.00,020.7,019.6,000.0,029.0,022.0,18.7,0000.0,0005.40,0003.91,0003.77
2024-01-26 15:56:00,SystemResetWarning,0833.1,5.00,000.00,020.7,019.6,000.0,029.0,022.0,19.1,0000.0,0005.25,0003.84,0003.68
2024-01-26 15:57:00,SystemResetWarning,0833.2,5.00,000.00,020.7,019.6,000.0,029.0,022.0,19.8,0000.0,0004.77,0003.73,0003.59
2024-01-26 15:58:00,SystemResetWarning,0833.2,5.00,000.00,020.7,019.6,000.0,029.0,022.0,20.1,0000.0,0004.63,0003.64,0003.51
2024-01-26 15:59:00,SystemResetWarning,0833.2,5.00,000.00,020.6,019.5,000.0,029.0,021.9,20.2,0000.0,0004.48,0003.55,0003.42
